User: anonymous   Login
Location: Unspecified
(0.0000°N, 0.0000°E)
Time: 10:13:59
(UTC+00:00)
Language:

OBJECT C - Orbit

View from above orbital plane
View from above orbital plane
View from above satellite
View from above satellite

Ground track
Ground track

The orbit data is extracted from the following two-line orbital elements,

1 44854U 19089C   21342.83994966  .00000967  00000-0  82945-4 0  9992
2 44854  36.9598 149.1179 0006288 107.3173 252.8263 14.99843495109290
Epoch (UTC): 08 December 2021 20:09:31
Eccentricity: 0.0006288
inclination: 36.9598°
perigee height: 563 km
apogee height: 572 km
right ascension of ascending node: 149.1179°
argument of perigee: 107.3173°
revolutions per day: 14.99843495
mean anomaly at epoch: 252.8263°
orbit number at epoch: 10929

The dashed part of the orbit path shows where the satellite is in the earth's shadow,  

DLR